Miscellaneous Local Product
Issued by NWS Hastings, NE

Home | Current Version | Previous Version | Graphics & Text | Print | Product List | Glossary On
Versions: 1 2 3 4 5 6 7 8 9 10 11 12 13 14 15 16 17 18 19 20 21 22 23 24 25 26 27 28 29 30 31 32 33 34 35 36 37 38 39 40 41 42 43 44 45 46 47 48 49 50
000
AXUS43 KGID 182002
MISGRI

GID CWA HOURLY WEATHER ROUNDUP
NATIONAL WEATHER SERVICE HASTINGS NE
300 PM CDT THU SEP 18 2014

NOTE: "FAIR" INDICATES FEW OR NO CLOUDS BELOW 12,000 FEET WITH NO
SIGNIFICANT WEATHER AND/OR OBSTRUCTIONS TO VISIBILITY.

...SOUTH CENTRAL NEBRASKA...

CITY           SKY/WX    TMP DP  RH WIND       PRES   REMARKS
GRAND ISLAND   MOSUNNY   78  61  55 SE13G23   29.96F
HASTINGS       CLOUDY    72  62  71 SE12      29.96F
KEARNEY        CLOUDY    70  63  78 SE13      29.97F
ORD            SUNNY     77  56  48 SE18G25   29.93F
YORK           SUNNY     77  63  61 S14       29.96F
AURORA         SUNNY     78  58  50 S13       29.97F
LEXINGTON      CLOUDY    71  64  78 SE13      29.96F
HOLDREGE       CLOUDY    68  64  86 SE9       29.96F FOG
HEBRON         CLOUDY    74  64  69 SE7       29.97F

...NEBRASKA PANHANDLE...

CITY           SKY/WX    TMP DP  RH WIND       PRES   REMARKS
CHADRON        SUNNY     91  52  26 S12       29.81F
ALLIANCE       SUNNY     85  56  37 S13       29.90F
SCOTTSBLUFF    MOSUNNY   87  55  33 E10       29.90F
SIDNEY         SUNNY     86  55  34 S12       29.95F

...WESTERN AND NORTH CENTRAL NEBRASKA...

CITY           SKY/WX    TMP DP  RH WIND       PRES   REMARKS
VALENTINE      MOSUNNY   76  62  62 SW21      29.89F
AINSWORTH      SUNNY     78  55  45 S23       29.91F
ONEILL         SUNNY     76  62  61 S18G25    29.95F
BROKEN BOW     MOSUNNY   79  62  56 S15G26    29.95F
IMPERIAL       CLOUDY    69  63  81 SE17      29.95F
NORTH PLATTE   CLOUDY    69  61  75 SE12      29.96F
MCCOOK         CLOUDY    66  64  93 SE9       29.96F FOG

...EASTERN NEBRASKA...

CITY           SKY/WX    TMP DP  RH WIND       PRES   REMARKS
NORFOLK        SUNNY     75  60  59 SE15G25   29.96F
SO SIOUX CITY  SUNNY     77  57  50 S7        29.98F
TEKAMAH        SUNNY     76  58  53 S12       29.99F
ALBION         SUNNY     75  58  56 SE14G20   29.96F
OMAHA EPPLEY   MOSUNNY   75  54  47 SE12      29.99F
OFFUTT AFB     SUNNY     77  60  55 S9        29.99F
MILLARD        SUNNY     76  58  54 SE7       29.99F
LINCOLN        SUNNY     78  57  48 SE10      29.98F
NEBRASKA CITY  SUNNY     71  51  48 E7        30.00F
BEATRICE       PTSUNNY   79  63  58 S6        29.97F
FALLS CITY     CLOUDY    70  60  70 E12       30.00F

...NORTHERN KANSAS...

CITY           SKY/WX    TMP DP  RH WIND       PRES   REMARKS
GOODLAND       SUNNY     81  60  48 SE13      29.96F
HILL CITY      CLOUDY    71  65  81 SE6       29.94F
NORTON         DRIZZLE   68  64  88 E5        29.94F
PHILLIPSBURG   CLOUDY    70  70 100 E8        29.94F FOG
SMITH CENTER   CLOUDY    73  64  73 SE15G22   29.94F
BELOIT         SUNNY     81  64  57 SE10G18   29.93F
HAYS           SUNNY     86  66  51 S24G31    29.89F
RUSSELL        SUNNY     83  64  52 S22G32    29.90F
CONCORDIA      SUNNY     77  65  66 S15G21    29.96F
SALINA         SUNNY     83  62  49 S15G24    29.94F
TOPEKA         CLOUDY    72  64  76 E7        29.99F



USA.gov is the U.S. government's official web portal to all federal, state and local government web resources and services.